TimeAKDT,TemperatureF,Dew PointF,Humidity,Sea Level PressureIn,VisibilityMPH,Wind Direction,Wind SpeedMPH,Gust SpeedMPH,PrecipitationIn,Events,Conditions,WindDirDegrees,DateUTC
12:53 AM,46.0,42.1,86,29.81,10.0,Calm,Calm,-,N/A,,Overcast,0,2014-06-09 08:53:00
1:53 AM,46.0,41.0,83,29.82,10.0,Calm,Calm,-,N/A,,Overcast,0,2014-06-09 09:53:00
2:53 AM,46.9,39.9,77,29.82,10.0,WSW,4.6,-,N/A,,Overcast,240,2014-06-09 10:53:00
3:53 AM,46.9,41.0,80,29.84,10.0,SSW,3.5,-,N/A,,Overcast,210,2014-06-09 11:53:00
4:53 AM,45.0,41.0,86,29.85,10.0,SSE,5.8,-,N/A,,Overcast,160,2014-06-09 12:53:00
5:53 AM,45.0,41.0,86,29.88,10.0,South,4.6,-,N/A,,Overcast,180,2014-06-09 13:53:00
7:53 AM,45.0,42.1,90,29.91,10.0,South,4.6,-,N/A,,Overcast,180,2014-06-09 15:53:00
8:53 AM,46.0,42.1,86,29.91,10.0,South,5.8,-,N/A,,Overcast,190,2014-06-09 16:53:00
9:53 AM,48.0,43.0,83,29.91,10.0,South,8.1,-,N/A,,Overcast,190,2014-06-09 17:53:00
10:53 AM,51.1,42.1,71,29.91,10.0,SSE,10.4,-,N/A,,Scattered Clouds,150,2014-06-09 18:53:00
11:53 AM,54.0,42.1,64,29.91,10.0,SE,9.2,-,N/A,,Mostly Cloudy,140,2014-06-09 19:53:00
12:53 PM,57.0,41.0,55,29.91,10.0,SSE,10.4,-,N/A,,Overcast,160,2014-06-09 20:53:00
1:53 PM,57.9,39.0,49,29.90,10.0,SE,13.8,19.6,N/A,,Mostly Cloudy,140,2014-06-09 21:53:00
2:53 PM,61.0,39.0,44,29.88,10.0,SSE,12.7,21.9,N/A,,Clear,160,2014-06-09 22:53:00
3:53 PM,62.1,37.9,41,29.88,10.0,SSE,17.3,21.9,N/A,,Clear,150,2014-06-09 23:53:00
4:53 PM,63.0,37.0,38,29.87,10.0,SE,15.0,26.5,N/A,,Clear,140,2014-06-10 00:53:00
5:53 PM,63.0,34.0,34,29.86,10.0,SSE,17.3,27.6,N/A,,Clear,160,2014-06-10 01:53:00
6:53 PM,62.1,33.1,34,29.86,10.0,SE,16.1,23.0,N/A,,Partly Cloudy,140,2014-06-10 02:53:00
7:53 PM,60.1,32.0,35,29.88,10.0,South,17.3,26.5,N/A,,Clear,170,2014-06-10 03:53:00
8:53 PM,57.0,32.0,39,29.90,10.0,South,17.3,24.2,N/A,,Clear,170,2014-06-10 04:53:00
9:53 PM,54.0,33.1,45,29.92,10.0,SSE,13.8,-,N/A,,Clear,160,2014-06-10 05:53:00
10:53 PM,51.1,35.1,54,29.94,10.0,SSE,15.0,-,N/A,,Clear,150,2014-06-10 06:53:00
11:53 PM,50.0,35.1,57,29.95,10.0,SSE,11.5,-,N/A,,Clear,150,2014-06-10 07:53:00